Tracking 35048 objects as of 19-Aug-2026
HD Live streaming from Space Station
objects crossing your sky now

SCOUT G-1 DEB

Track SCOUT G-1 DEB now!
10-day predictions


NORAD ID: 43331
Int'l Code: 1988-033M
Launch date: April 26, 1988
Source: United States (US)
Launch site: AIR FORCE WESTERN TEST RANGE (AFWTR)

Note: This is SATELLITE DEBRIS
Your satellite tracking list
Your tracking list is empty




NASA's NSSDC Master Catalog

Two Line Element Set (TLE):
1 43331U 88033M   26226.18377263  .00000189  00000-0  33123-3 0  9994
2 43331  90.3249  20.4587 0170195   2.6283 357.5713 13.35202273244428
Source of the keplerian elements: AFSPC